�������l�o���
Date,Time,MP-1(��Sv/h),MP-2(��Sv/h),MP-3(��Sv/h),MP-4(��Sv/h),MP-5(��Sv/h),MP-6(��Sv/h),MP-7(��Sv/h),MP-8(��Sv/h),����,����(m/s),���J
2018/01/14,00:00,0.884,1.483,0.925,1.752,1.183,0.489,0.875,0.841,���k��,3.3,��
2018/01/14,00:10,0.885,1.482,0.926,1.755,1.184,0.488,0.875,0.841,�k��,4.5,��
2018/01/14,00:20,0.886,1.479,0.926,1.757,1.184,0.489,0.874,0.839,�k��,4.8,��
2018/01/14,00:30,0.886,1.480,0.926,1.756,1.184,0.487,0.874,0.839,���k��,5.8,��
2018/01/14,00:40,0.885,1.481,0.927,1.758,1.183,0.488,0.872,0.839,���k��,6.5,��
2018/01/14,00:50,0.885,1.480,0.926,1.753,1.184,0.489,0.874,0.841,���k��,8.3,��
2018/01/14,01:00,0.885,1.481,0.927,1.755,1.184,0.488,0.873,0.840,�k��,7.1,��
2018/01/14,01:10,0.885,1.479,0.926,1.757,1.181,0.488,0.874,0.839,�k��,7.6,��
2018/01/14,01:20,0.886,1.479,0.925,1.758,1.184,0.489,0.874,0.840,�k��,8.9,��
2018/01/14,01:30,0.885,1.483,0.925,1.758,1.186,0.488,0.874,0.841,�k��,8.7,��
2018/01/14,01:40,0.886,1.479,0.926,1.757,1.184,0.486,0.875,0.841,�k��,7.6,��
2018/01/14,01:50,0.884,1.481,0.926,1.756,1.184,0.485,0.875,0.840,�k��,8.7,��
2018/01/14,02:00,0.885,1.481,0.925,1.754,1.185,0.485,0.875,0.841,�k��,8.2,��
2018/01/14,02:10,0.883,1.483,0.926,1.756,1.184,0.486,0.873,0.839,�k�k��,6.6,��
2018/01/14,02:20,0.886,1.481,0.925,1.755,1.181,0.487,0.874,0.841,�k�k��,6.2,��
2018/01/14,02:30,0.885,1.478,0.926,1.757,1.184,0.487,0.874,0.839,�k�k��,4.9,��
2018/01/14,02:40,0.883,1.481,0.925,1.755,1.183,0.486,0.876,0.841,�k�k��,7.4,��
2018/01/14,02:50,0.884,1.482,0.925,1.757,1.181,0.485,0.874,0.839,�k,4.5,��
2018/01/14,03:00,0.885,1.479,0.925,1.756,1.182,0.486,0.873,0.839,�k��,6.8,��
2018/01/14,03:10,0.883,1.479,0.927,1.757,1.184,0.488,0.875,0.841,�k��,10.3,��
2018/01/14,03:20,0.885,1.478,0.926,1.755,1.183,0.485,0.875,0.840,���k��,12.5,��
2018/01/14,03:30,0.881,1.479,0.923,1.755,1.179,0.486,0.874,0.841,�k��,12.4,��
2018/01/14,03:40,0.882,1.479,0.927,1.758,1.180,0.485,0.874,0.838,���k��,10.2,��
2018/01/14,03:50,0.885,1.478,0.926,1.757,1.182,0.485,0.874,0.839,���k��,12.7,��
2018/01/14,04:00,0.883,1.482,0.924,1.759,1.181,0.485,0.872,0.840,���k��,10.5,��
2018/01/14,04:10,0.883,1.480,0.923,1.758,1.183,0.486,0.870,0.840,���k��,11.1,��
2018/01/14,04:20,0.883,1.480,0.925,1.758,1.182,0.487,0.871,0.840,���k��,8.5,��
2018/01/14,04:30,0.884,1.481,0.926,1.755,1.181,0.486,0.872,0.841,���k��,8.4,��
2018/01/14,04:40,0.884,1.478,0.927,1.758,1.182,0.487,0.871,0.840,�k��,7.6,��
2018/01/14,04:50,0.883,1.479,0.925,1.758,1.182,0.488,0.873,0.840,���k��,7.3,��
2018/01/14,05:00,0.885,1.482,0.927,1.757,1.182,0.489,0.872,0.842,�k��,7.4,��
2018/01/14,05:10,0.882,1.482,0.925,1.758,1.183,0.488,0.872,0.840,�k��,6.7,��
2018/01/14,05:20,0.882,1.481,0.925,1.754,1.181,0.488,0.873,0.841,�k��,8.1,��
2018/01/14,05:30,0.883,1.479,0.926,1.757,1.182,0.487,0.874,0.841,�k��,8.9,��
2018/01/14,05:40,0.882,1.481,0.925,1.758,1.182,0.486,0.874,0.841,�k��,8.3,��
2018/01/14,05:50,0.886,1.481,0.925,1.756,1.183,0.487,0.876,0.840,�k��,8.1,��
2018/01/14,06:00,0.883,1.480,0.929,1.759,1.181,0.487,0.873,0.838,�k��,9.5,��
2018/01/14,06:10,0.882,1.481,0.926,1.756,1.182,0.486,0.874,0.839,�k��,7.9,��
2018/01/14,06:20,0.884,1.477,0.925,1.753,1.182,0.488,0.874,0.840,�k��,5.4,��
2018/01/14,06:30,0.882,1.479,0.927,1.758,1.178,0.487,0.873,0.840,�k��,4.4,��
2018/01/14,06:40,0.883,1.480,0.926,1.756,1.180,0.486,0.873,0.841,�k��,4.6,��
2018/01/14,06:50,0.882,1.480,0.927,1.753,1.179,0.487,0.873,0.838,�k��,6.5,��
2018/01/14,07:00,0.880,1.481,0.925,1.758,1.183,0.486,0.873,0.840,�k�k��,7.9,��
2018/01/14,07:10,0.881,1.480,0.925,1.757,1.181,0.486,0.873,0.839,�k�k��,6.7,��
2018/01/14,07:20,0.884,1.478,0.925,1.756,1.182,0.486,0.873,0.838,�k�k��,5.6,��
2018/01/14,07:30,0.882,1.479,0.925,1.755,1.180,0.487,0.874,0.838,�k�k��,5.1,��
2018/01/14,07:40,0.882,1.476,0.924,1.760,1.181,0.485,0.873,0.840,�k��,4.3,��
2018/01/14,07:50,0.882,1.480,0.927,1.753,1.181,0.487,0.874,0.838,�k��,4.4,��
2018/01/14,08:00,0.883,1.476,0.925,1.754,1.183,0.488,0.873,0.840,�k��,3.2,��
2018/01/14,08:10,0.882,1.479,0.926,1.757,1.182,0.487,0.874,0.840,�k��,1.5,��
2018/01/14,08:20,0.886,1.478,0.926,1.757,1.181,0.487,0.875,0.839,-,CALM,��
2018/01/14,08:30,0.885,1.482,0.928,1.754,1.181,0.489,0.874,0.840,�k�k��,2.0,��
2018/01/14,08:40,0.885,1.481,0.925,1.756,1.183,0.488,0.872,0.840,�k�k��,3.0,��
2018/01/14,08:50,0.884,1.479,0.927,1.754,1.184,0.487,0.873,0.840,�k�k��,6.3,��
2018/01/14,09:00,0.886,1.481,0.927,1.753,1.183,0.488,0.874,0.837,�k,6.1,��
2018/01/14,09:10,0.886,1.483,0.927,1.757,1.177,0.486,0.875,0.840,�k,6.0,��
2018/01/14,09:20,0.886,1.482,0.925,1.756,1.182,0.488,0.874,0.838,�k,7.1,��
2018/01/14,09:30,0.887,1.482,0.925,1.757,1.182,0.487,0.875,0.841,�k,6.8,��
2018/01/14,09:40,0.886,1.482,0.929,1.756,1.181,0.486,0.874,0.840,�k,7.3,��
2018/01/14,09:50,0.885,1.484,0.925,1.758,1.183,0.487,0.874,0.840,�k,7.6,��
2018/01/14,10:00,0.887,1.484,0.928,1.760,1.181,0.484,0.874,0.841,�k,6.3,��
2018/01/14,10:10,0.886,1.482,0.929,1.760,1.182,0.487,0.874,0.840,�k,6.4,��
2018/01/14,10:20,0.888,1.483,0.929,1.757,1.183,0.486,0.874,0.839,�k,5.1,��
2018/01/14,10:30,0.887,1.483,0.927,1.758,1.180,0.488,0.872,0.837,�k,5.4,��
2018/01/14,10:40,0.888,1.482,0.928,1.760,1.183,0.487,0.873,0.839,�k,5.7,��
2018/01/14,10:50,0.887,1.484,0.929,1.761,1.183,0.489,0.874,0.841,�k�k��,9.0,��
2018/01/14,11:00,0.889,1.483,0.929,1.756,1.183,0.488,0.873,0.840,�k�k��,5.9,��
2018/01/14,11:10,0.887,1.484,0.927,1.759,1.188,0.489,0.875,0.840,�k�k��,5.6,��
2018/01/14,11:20,0.887,1.487,0.928,1.760,1.184,0.488,0.872,0.841,�k,5.7,��
2018/01/14,11:30,0.887,1.484,0.928,1.758,1.189,0.488,0.875,0.841,�k�k��,7.0,��
2018/01/14,11:40,0.887,1.483,0.929,1.759,1.190,0.488,0.875,0.840,�k�k��,7.2,��
2018/01/14,11:50,0.886,1.484,0.926,1.758,1.186,0.488,0.874,0.841,�k�k��,7.4,��
2018/01/14,12:00,0.888,1.482,0.929,1.759,1.188,0.489,0.876,0.839,�k�k��,6.4,��
2018/01/14,12:10,0.887,1.483,0.927,1.761,1.188,0.488,0.876,0.840,�k�k��,6.1,��
2018/01/14,12:20,0.887,1.483,0.929,1.760,1.189,0.487,0.874,0.841,�k�k��,7.3,��
2018/01/14,12:30,0.887,1.485,0.928,1.761,1.190,0.488,0.875,0.840,�k�k��,8.5,��
2018/01/14,12:40,0.887,1.483,0.929,1.758,1.187,0.488,0.879,0.841,�k�k��,7.1,��
2018/01/14,12:50,0.889,1.485,0.929,1.761,1.188,0.487,0.876,0.842,�k�k��,6.6,��
2018/01/14,13:00,0.887,1.487,0.930,1.760,1.188,0.488,0.876,0.843,�k�k��,7.1,��
2018/01/14,13:10,0.888,1.487,0.927,1.760,1.188,0.488,0.876,0.842,�k�k��,6.3,��
2018/01/14,13:20,0.888,1.486,0.930,1.762,1.189,0.488,0.876,0.842,�k�k��,6.4,��
2018/01/14,13:30,0.890,1.486,0.931,1.759,1.188,0.487,0.877,0.841,�k�k��,7.3,��
2018/01/14,13:40,0.889,1.486,0.928,1.759,1.185,0.487,0.877,0.841,�k�k��,6.6,��
2018/01/14,13:50,0.890,1.489,0.929,1.760,1.190,0.489,0.874,0.842,�k�k��,6.1,��
2018/01/14,14:00,0.889,1.486,0.930,1.759,1.189,0.488,0.877,0.841,�k�k��,6.4,��
2018/01/14,14:10,0.892,1.486,0.931,1.760,1.188,0.488,0.876,0.841,�k�k��,6.4,��
2018/01/14,14:20,0.889,1.486,0.932,1.760,1.189,0.490,0.876,0.840,�k�k��,6.2,��
2018/01/14,14:30,0.889,1.489,0.929,1.761,1.190,0.489,0.877,0.840,�k�k��,6.6,��
2018/01/14,14:40,0.890,1.487,0.930,1.758,1.188,0.488,0.875,0.840,�k�k��,4.1,��
2018/01/14,14:50,0.889,1.484,0.931,1.761,1.190,0.488,0.873,0.843,�k��,5.3,��
2018/01/14,15:00,0.890,1.484,0.930,1.762,1.188,0.487,0.876,0.841,�k��,5.5,��
2018/01/14,15:10,0.892,1.487,0.929,1.760,1.190,0.487,0.877,0.841,���k��,6.5,��
2018/01/14,15:20,0.889,1.483,0.933,1.761,1.191,0.488,0.876,0.840,�k��,5.4,��
2018/01/14,15:30,0.889,1.487,0.931,1.762,1.189,0.489,0.875,0.842,�k�k��,7.2,��
2018/01/14,15:40,0.890,1.485,0.930,1.760,1.189,0.488,0.878,0.841,�k��,7.5,��
2018/01/14,15:50,0.888,1.486,0.930,1.762,1.188,0.489,0.876,0.839,�k�k��,6.4,��
2018/01/14,16:00,0.891,1.486,0.931,1.759,1.188,0.487,0.877,0.841,�k�k��,5.7,��
2018/01/14,16:10,0.889,1.483,0.930,1.760,1.188,0.488,0.878,0.840,�k�k��,5.5,��
2018/01/14,16:20,0.889,1.488,0.930,1.762,1.188,0.488,0.875,0.840,�k�k��,5.6,��
2018/01/14,16:30,0.891,1.483,0.930,1.760,1.189,0.488,0.876,0.841,�k�k��,5.9,��
2018/01/14,16:40,0.888,1.486,0.930,1.760,1.188,0.488,0.876,0.840,�k�k��,5.5,��
2018/01/14,16:50,0.890,1.487,0.928,1.761,1.188,0.488,0.876,0.840,�k�k��,4.7,��
2018/01/14,17:00,0.888,1.486,0.928,1.761,1.187,0.487,0.874,0.841,�k�k��,4.5,��
2018/01/14,17:10,0.888,1.486,0.928,1.760,1.187,0.488,0.875,0.840,�k�k��,3.7,��
2018/01/14,17:20,0.888,1.487,0.929,1.760,1.185,0.486,0.875,0.837,�k�k��,3.7,��
2018/01/14,17:30,0.887,1.486,0.930,1.759,1.187,0.488,0.875,0.840,�k�k��,4.4,��
2018/01/14,17:40,0.887,1.481,0.927,1.755,1.185,0.487,0.872,0.839,�k�k��,4.2,��
2018/01/14,17:50,0.887,1.485,0.928,1.759,1.185,0.486,0.872,0.840,�k�k��,4.0,��
2018/01/14,18:00,0.888,1.484,0.929,1.756,1.186,0.486,0.873,0.838,�k��,3.8,��
2018/01/14,18:10,0.886,1.482,0.927,1.758,1.186,0.486,0.874,0.840,�k�k��,4.0,��
2018/01/14,18:20,0.887,1.483,0.928,1.760,1.187,0.486,0.873,0.839,�k�k��,5.3,��
2018/01/14,18:30,0.886,1.486,0.927,1.757,1.186,0.486,0.872,0.840,�k�k��,4.5,��
2018/01/14,18:40,0.888,1.486,0.928,1.755,1.185,0.487,0.874,0.839,�k�k��,4.0,��
2018/01/14,18:50,0.887,1.485,0.926,1.758,1.186,0.486,0.873,0.838,�k��,3.2,��
2018/01/14,19:00,0.887,1.484,0.927,1.758,1.186,0.486,0.872,0.838,�k��,3.5,��
2018/01/14,19:10,0.887,1.484,0.926,1.757,1.185,0.486,0.875,0.838,�k��,3.8,��
2018/01/14,19:20,0.885,1.484,0.928,1.755,1.185,0.485,0.874,0.837,�k��,2.8,��
2018/01/14,19:30,0.885,1.485,0.926,1.757,1.185,0.486,0.873,0.839,�k��,2.0,��
2018/01/14,19:40,0.887,1.487,0.928,1.760,1.188,0.486,0.871,0.841,�k��,1.2,��
2018/01/14,19:50,0.884,1.487,0.927,1.758,1.186,0.488,0.873,0.837,-,CALM,��
2018/01/14,20:00,0.888,1.484,0.927,1.757,1.187,0.486,0.871,0.839,���k��,0.6,��
2018/01/14,20:10,0.885,1.484,0.926,1.760,1.184,0.486,0.872,0.840,���k��,1.1,��
2018/01/14,20:20,0.886,1.483,0.926,1.758,1.188,0.486,0.872,0.839,���k��,1.2,��
2018/01/14,20:30,0.887,1.483,0.929,1.756,1.185,0.486,0.873,0.839,��,1.2,��
2018/01/14,20:40,0.886,1.484,0.925,1.755,1.186,0.486,0.872,0.840,���k��,1.2,��
2018/01/14,20:50,0.885,1.484,0.928,1.755,1.183,0.486,0.871,0.839,���k��,1.7,��
2018/01/14,21:00,0.885,1.484,0.927,1.758,1.185,0.486,0.872,0.838,�k��,2.3,��
2018/01/14,21:10,0.885,1.483,0.926,1.758,1.185,0.487,0.873,0.837,���k��,2.5,��
2018/01/14,21:20,0.884,1.484,0.924,1.754,1.184,0.486,0.874,0.837,���k��,1.7,��
2018/01/14,21:30,0.886,1.483,0.927,1.756,1.186,0.487,0.872,0.838,���k��,1.9,��
2018/01/14,21:40,0.886,1.481,0.925,1.755,1.183,0.486,0.873,0.840,�k��,1.5,��
2018/01/14,21:50,0.885,1.481,0.926,1.753,1.183,0.487,0.871,0.839,���k��,1.7,��
2018/01/14,22:00,0.883,1.485,0.925,1.757,1.181,0.485,0.872,0.839,���쐼,1.7,��
2018/01/14,22:10,0.883,1.483,0.926,1.756,1.183,0.487,0.873,0.840,���쐼,2.2,��
2018/01/14,22:20,0.886,1.480,0.924,1.758,1.184,0.485,0.871,0.839,���쐼,2.3,��
2018/01/14,22:30,0.886,1.482,0.925,1.755,1.183,0.486,0.872,0.840,�쐼,2.0,��
2018/01/14,22:40,0.886,1.481,0.926,1.756,1.182,0.486,0.871,0.839,�쐼,2.2,��
2018/01/14,22:50,0.886,1.482,0.927,1.756,1.182,0.486,0.873,0.838,��쐼,2.8,��
2018/01/14,23:00,0.887,1.484,0.925,1.759,1.179,0.486,0.874,0.839,��쐼,3.2,��
2018/01/14,23:10,0.884,1.485,0.925,1.755,1.182,0.486,0.872,0.840,��쐼,3.6,��
2018/01/14,23:20,0.886,1.482,0.927,1.757,1.181,0.486,0.872,0.838,��쐼,4.5,��
2018/01/14,23:30,0.887,1.484,0.924,1.757,1.182,0.486,0.871,0.838,��쐼,4.5,��
2018/01/14,23:40,0.884,1.483,0.927,1.757,1.185,0.488,0.873,0.839,��쐼,4.2,��
2018/01/14,23:50,0.884,1.482,0.925,1.756,1.181,0.487,0.872,0.839,��쐼,4.1,��
